DateTimeUTC,F1_A11,F1_S11,BsB_S11,BsG_S11,BsR_S11,BbsB_S11,BbsG_S11,BbsR_S11,BaB_A11,BaG_A11,BaR_A11,Tu_S11,T_S11,Uu_S11,U_S11,P_S11,T1_A11
2021-12-09T05:00:00Z,00000200,21000000,,,,,,,0000.23,-000.22,0000.35,19.6,26.5,,00.0,0634.8,31.1
2021-12-09T05:01:00Z,00000200,21000000,,,,,,,0000.17,0000.22,-000.08,19.6,26.5,,00.0,0634.8,31.1
2021-12-09T05:02:00Z,00000200,21000000,,,,,,,-000.32,-000.63,-000.45,19.6,26.5,,00.0,0634.8,31.1
2021-12-09T05:03:00Z,00000200,61000000,,,,,,,-000.46,0000.06,-000.15,19.6,26.5,,00.0,0634.8,31.1
2021-12-09T05:04:00Z,00000200,41000000,0000.19,-000.18,0000.22,0000.61,0000.21,-000.30,-000.04,0000.05,-000.04,19.6,26.3,,00.0,0635.6,31.1
2021-12-09T05:05:00Z,00000200,01000000,-000.04,-000.20,-000.18,0000.52,0000.25,-000.32,0000.53,0000.47,0000.56,19.5,26.2,,00.0,0635.6,31.0
2021-12-09T05:06:00Z,00000200,01000000,-000.30,-000.12,0000.17,-000.39,0000.27,0000.17,0000.37,0000.45,-000.08,19.5,26.2,,00.0,0635.6,31.0
2021-12-09T05:07:00Z,00000200,01000000,-000.64,-000.24,0000.38,-000.04,-000.39,-000.33,0000.53,0000.50,0000.43,19.4,26.2,,00.0,0635.5,31.0
2021-12-09T05:08:00Z,00000200,01000000,0000.21,0000.21,-000.17,0000.25,-000.06,-000.31,0000.24,-000.33,0000.22,19.4,26.1,,00.0,0635.5,31.0
2021-12-09T05:09:00Z,00000200,01000000,-000.09,-000.08,0000.07,0000.08,-000.17,0000.08,0000.67,0001.24,0000.58,19.5,26.1,,00.0,0635.5,31.1
2021-12-09T05:10:00Z,00000200,01000000,0000.02,-000.11,0000.51,0000.20,-000.25,0000.04,0000.48,0000.11,0000.30,19.5,26.1,,00.0,0635.5,31.1
2021-12-09T05:11:00Z,00000200,01000000,0000.26,0000.23,0000.09,0000.50,0000.12,-000.17,0000.45,0000.73,0000.62,19.6,26.2,,00.0,0635.5,31.1
2021-12-09T05:12:00Z,00000200,01000000,0000.44,-000.11,0000.03,0000.50,0000.27,0000.26,0000.36,0000.03,-000.03,19.7,26.2,,00.0,0635.5,31.1
2021-12-09T05:13:00Z,00000200,01000000,0000.03,-000.47,0000.20,0000.05,0000.12,-000.24,0000.40,0000.43,0000.09,19.7,26.2,,00.0,0635.5,31.1
2021-12-09T05:14:00Z,00000200,01000000,-000.68,-000.06,0000.08,0000.91,-000.05,0000.26,0000.13,0000.09,0000.29,19.8,26.2,,00.0,0635.6,31.1
2021-12-09T05:15:00Z,00000200,01000000,0000.10,-000.12,-000.05,0000.35,0000.03,-000.15,0000.29,0000.31,-000.12,19.8,26.3,,00.0,0635.6,31.1
2021-12-09T05:16:00Z,00000200,01000000,-000.13,0000.05,0000.33,0000.60,-000.26,-000.25,-000.11,0000.04,0000.29,19.8,26.3,,00.0,0635.6,31.1
2021-12-09T05:17:00Z,00000200,01000000,-000.64,-000.05,0000.37,-000.11,0000.28,-000.01,-000.10,-000.21,-000.06,19.8,26.3,,00.0,0635.6,31.1
2021-12-09T05:18:00Z,00000200,01000000,-000.79,-000.04,0000.38,0000.52,0000.20,0000.36,-000.19,0000.10,0000.01,19.7,26.3,,00.0,0635.5,31.1
2021-12-09T05:19:00Z,00000200,01000000,0000.18,0000.11,0000.27,0000.76,0000.38,-000.32,0000.18,-000.05,-000.10,19.6,26.2,,00.0,0635.5,31.1
2021-12-09T05:20:00Z,00000200,01000000,0001.10,-000.17,0000.00,0001.11,-000.07,-000.08,-000.31,-000.10,-000.39,19.6,26.2,,00.0,0635.5,31.0
2021-12-09T05:21:00Z,00000200,01000000,0000.25,-000.30,0000.21,0000.49,0000.21,0000.29,-000.13,-000.49,0000.05,19.5,26.2,,00.0,0635.5,31.0
2021-12-09T05:22:00Z,00000200,01000000,0000.73,0000.01,0000.31,0000.99,-000.08,-000.04,-000.29,-000.02,-000.54,19.5,26.1,,00.0,0635.5,31.0
2021-12-09T05:23:00Z,00000200,01000000,0000.19,0000.09,0000.25,-000.24,0000.28,0000.11,0000.24,-000.48,0000.48,19.5,26.1,,00.0,0635.5,31.0
2021-12-09T05:24:00Z,00000200,01000000,0000.70,-000.07,0000.36,0000.57,0000.16,0000.12,-000.33,0000.11,-000.41,19.5,26.1,,00.0,0635.5,31.0
2021-12-09T05:25:00Z,00000200,01000000,0000.35,-000.11,-000.12,0000.08,0000.08,0000.13,0000.12,0000.45,0000.47,19.6,26.1,,00.0,0635.5,31.1
2021-12-09T05:26:00Z,00000200,01000000,-000.18,0000.02,0000.12,0000.28,0000.08,-000.01,0000.14,0000.24,-000.16,19.6,26.1,,00.0,0635.5,31.1
2021-12-09T05:27:00Z,00000200,01000000,-000.16,-000.04,0000.08,0000.40,-000.13,-000.05,0000.33,-000.09,0000.41,19.7,26.1,,00.0,0635.5,31.1
2021-12-09T05:28:00Z,00000200,01000000,0000.09,-000.37,0000.27,0000.64,0000.29,0000.05,-000.33,-000.31,-000.47,19.7,26.1,,00.0,0635.5,31.1
2021-12-09T05:29:00Z,00000200,01000000,0000.28,-000.22,0000.01,0000.07,0000.11,-000.17,-000.33,0000.06,-000.21,19.7,26.2,,00.0,0635.5,31.1
2021-12-09T05:30:00Z,00000200,01000000,-000.13,0000.05,0000.24,0000.34,-000.04,-000.18,0000.11,-000.30,0000.00,19.6,26.2,,00.0,0635.5,31.1
2021-12-09T05:31:00Z,00000200,01000000,-000.07,-000.02,0000.16,0001.33,-000.05,-000.05,-000.47,-000.40,-000.38,19.6,26.1,,00.0,0635.5,31.0
2021-12-09T05:32:00Z,00000200,01000000,-000.55,-000.23,0000.13,0000.01,0000.05,0000.47,-000.75,-000.61,-000.54,19.5,26.1,,00.0,0635.5,31.0
2021-12-09T05:33:00Z,00000200,01000000,0000.63,0000.12,-000.03,0000.48,-000.12,0000.04,-000.52,-000.48,-000.22,19.4,26.0,,00.0,0635.5,31.0
2021-12-09T05:34:00Z,00000200,01000000,0000.28,-000.32,0000.28,0000.26,0000.31,0000.02,-000.56,-000.55,-000.12,19.4,26.0,,00.0,0635.5,31.0
2021-12-09T05:35:00Z,00000200,01000000,-000.33,-000.18,0000.17,0000.16,0000.09,-000.12,-000.43,-000.30,-000.12,19.3,26.0,,00.0,0635.5,31.0
2021-12-09T05:36:00Z,00000200,01000000,-000.66,-000.35,0000.31,-000.15,0000.23,0000.04,-000.05,-000.58,-000.68,19.2,25.9,,00.0,0635.5,31.0
2021-12-09T05:37:00Z,00000200,01000000,-000.24,0000.32,-000.15,0000.31,0000.18,-000.10,-000.29,-000.17,-000.38,19.2,25.9,,00.0,0635.5,31.0
2021-12-09T05:38:00Z,00000200,01000000,0000.75,-000.28,0000.24,0000.50,-000.46,-000.10,-000.50,0000.03,0000.11,19.2,25.9,,00.0,0635.5,31.0
2021-12-09T05:39:00Z,00000200,01000000,-000.26,0000.06,0000.26,0000.81,0000.15,0000.13,0000.28,-000.03,0000.02,19.2,25.9,,00.0,0635.5,31.0
2021-12-09T05:40:00Z,00000200,01000000,0000.18,-000.03,-000.08,0000.01,-000.08,0000.08,0000.11,-000.02,0000.20,19.2,25.9,,00.0,0635.5,31.0
2021-12-09T05:41:00Z,00000200,01000000,-000.02,-000.26,0000.15,-000.07,0000.32,-000.08,0000.29,0000.17,0000.02,19.3,25.9,,00.0,0635.5,31.0
2021-12-09T05:42:00Z,00000200,01000000,0000.23,0000.07,-000.24,0001.29,0000.37,-000.24,0000.01,0000.18,-000.21,19.4,25.9,,00.0,0635.5,31.1
2021-12-09T05:43:00Z,00000200,01000000,0000.24,0000.13,0000.37,0000.86,0000.03,-000.01,0000.04,-000.09,0000.40,19.5,25.9,,00.0,0635.5,31.1
2021-12-09T05:44:00Z,00000200,01000000,-000.15,-000.03,0000.21,0000.79,-000.09,0000.09,-000.03,0000.13,0000.11,19.5,25.9,,00.0,0635.5,31.1
2021-12-09T05:45:00Z,00000200,01000000,-001.34,-000.16,0000.50,0000.56,0000.32,-000.11,0000.10,0000.62,0000.01,19.4,26.0,,00.0,0635.5,31.1
2021-12-09T05:46:00Z,00000200,01000000,-000.08,-000.31,0000.29,0000.74,0000.01,-000.13,0000.13,-000.30,0000.17,19.4,25.9,,00.0,0635.5,31.0
2021-12-09T05:47:00Z,00000200,01000000,-000.67,-000.20,0000.49,0000.25,-000.01,-000.37,0000.21,-000.06,0000.10,19.3,25.9,,00.0,0635.5,31.0
2021-12-09T05:48:00Z,00000200,01000000,0000.44,0000.10,0000.18,0000.18,-000.07,0000.25,0000.18,0000.28,-000.01,19.3,25.9,,00.0,0635.5,31.0
2021-12-09T05:49:00Z,00000200,01000000,-000.69,-000.24,0000.11,0000.50,-000.09,-000.23,-000.01,0000.13,-000.26,19.2,25.8,,00.0,0635.5,31.0
2021-12-09T05:50:00Z,00000200,01000000,-000.74,0000.22,0000.16,0000.49,-000.19,-000.08,-000.19,-000.31,0000.55,19.1,25.8,,00.0,0635.5,31.0
2021-12-09T05:51:00Z,00000200,01000000,0000.10,-000.08,0000.37,0000.44,-000.23,-000.05,-000.14,0000.02,-000.33,19.1,25.8,,00.0,0635.5,31.0
2021-12-09T05:52:00Z,00000200,01000000,-000.30,-000.18,0000.16,0000.57,-000.07,-000.00,-000.06,-000.13,-000.24,19.0,25.7,,00.0,0635.5,31.0
2021-12-09T05:53:00Z,00000200,01000000,-000.41,-000.12,0000.55,0000.67,-000.10,0000.18,0000.28,0000.46,0000.28,19.0,25.7,,00.0,0635.5,31.0
2021-12-09T05:54:00Z,00000200,01000000,-000.12,0000.25,-000.10,0000.73,0000.17,-000.13,0000.49,0000.16,0000.19,19.0,25.7,,00.0,0635.5,31.0
2021-12-09T05:55:00Z,00000200,01000000,0000.33,-000.20,-000.11,-000.04,0000.06,-000.43,0000.43,0000.22,0000.20,19.1,25.7,,00.0,0635.6,31.0
2021-12-09T05:56:00Z,00000200,01000000,0000.23,-000.13,0000.24,0000.57,-000.06,0000.34,-000.18,0000.08,0000.40,19.1,25.7,,00.0,0635.6,31.0
2021-12-09T05:57:00Z,00000200,41000000,,,,,,,0000.31,0000.01,-000.19,19.2,25.8,,00.0,0635.5,31.0
2021-12-09T05:58:00Z,00000200,61000000,,,,,,,0000.31,0000.69,0000.37,18.9,25.9,,00.0,0634.7,31.1
2021-12-09T05:59:00Z,00000200,21000000,,,,,,,-000.12,-000.01,0000.08,19.0,26.0,,00.0,0634.7,31.1
